RH
48 47 45 43 45 47 47 47 53 57 54 52 48 46 45 45 46 49 56 53 57 51 46 51 48 46 48 48 50 45 44 49
48 51 50 48 49 48 45 46 51 42 39 41 42 43 42 48 48 56 56 54 53 50 42 44 48 50 53 53 51 52 48 50
52 52 50 48 47 47 45 44 44 41 36 40 42 43 46 47 49 52 50 52 51 42 48 46 53 48 52 53 54 52 47 49
54 53 50 44 44 44 42 42 43 46 48 42 45 45 42 40 46 44 47 50 51 54 54 53 54 52 51 53 52 54 57 48
50 51 46 42 44 43 40 42 44 48 48 46 47 40 40 45 46 45 42 52 51 54 59 58 56 52 54 53 49 52 55 57
52 47 43 41 41 42 44 46 48 52 52 48 43 46 45 45 43 44 46 47 52 53 58 58 55 52 56 56 55 54 54 67
50 47 45 44 40 43 45 53 58 51 48 49 49 50 45 40 42 40 41 43 44 52 55 56 55 56 58 55 55 57 56 65
51 47 46 47 46 49 53 52 55 49 47 46 49 47 47 44 43 41 43 41 42 47 55 57 54 58 59 56 56 58 65 81
49 48 48 46 50 51 56 50 46 42 43 47 48 45 40 41 43 42 41 42 44 52 55 56 59 59 56 54 59 63 70 80
51 50 49 48 48 52 52 45 42 42 46 53 48 47 47 45 48 47 44 46 43 51 57 59 58 57 55 57 68 75 76 77
52 48 52 47 48 52 54 51 47 46 49 45 46 48 47 48 48 51 49 48 50 52 57 59 57 54 53 57 67 69 70 74
52 52 50 48 48 49 66 62 47 45 44 47 48 49 48 49 46 48 50 52 52 54 59 59 57 54 51 59 64 67 69 72
52 50 49 49 48 59 71 54 44 46 46 47 50 49 47 45 46 50 53 54 56 59 60 59 57 52 56 64 72 66 63 66
52 50 48 48 52 66 50 45 45 42 43 44 48 50 50 53 53 54 56 59 58 57 59 58 53 58 62 65 71 75 59 60
52 51 51 52 51 60 58 46 44 42 42 43 49 51 52 52 52 54 58 58 57 54 50 49 59 59 57 69 72 68 56 60
52 54 54 52 75 87 48 44 44 44 43 44 51 52 51 50 51 50 51 51 49 46 50 57 60 56 55 78 88 61 57 63
51 55 51 90 94 63 44 48 44 42 44 47 49 48 43 43 39 42 42 43 47 51 57 60 64 54 74 80 78 59 58 60
54 55 73 91 90 45 64 44 42 42 44 45 45 39 33 32 33 36 39 43 45 49 52 54 59 60 78 84 77 59 56 62
56 78 86 86 56 51 47 38 41 44 45 41 32 31 28 30 32 36 39 39 41 43 46 50 54 54 73 79 77 58 59 60
Wind_Speed
14 15 15 14 13 12 11 8 9 8 7 6 5 4 3 4 4 4 6 5 6 5 5 7 8 6 7 9 11 10 9 10
13 14 15 15 12 11 10 10 8 5 4 4 4 3 4 5 6 7 7 5 6 7 6 8 7 7 9 10 10 12 9 9
14 15 15 12 12 11 10 8 6 4 4 4 3 3 4 5 5 6 6 6 6 7 8 7 8 7 10 10 11 9 8 8
16 15 14 13 12 11 10 9 8 7 7 6 5 5 3 3 3 3 4 6 6 6 7 7 7 7 7 9 9 10 9 8
15 16 15 13 12 11 11 10 9 7 5 5 4 4 3 3 3 2 3 5 6 6 6 6 7 7 8 7 8 9 9 9
15 16 16 14 12 11 10 11 11 7 8 7 4 5 4 3 2 5 5 5 6 6 6 6 7 7 8 9 11 11 7 6
15 15 15 13 12 11 10 11 8 7 7 7 7 6 5 4 5 5 5 5 4 6 6 6 7 9 9 9 11 10 8 6
16 16 14 12 11 10 10 8 8 7 7 7 6 6 6 5 5 5 7 6 5 6 7 7 8 9 9 10 11 10 7 7
14 14 13 12 10 10 9 8 8 7 7 7 5 5 4 4 5 5 5 5 5 7 6 7 9 10 10 11 8 8 8 7
13 13 12 11 10 9 9 8 7 7 6 4 5 5 5 5 6 5 5 5 6 7 7 7 10 10 11 12 8 9 9 8
12 11 11 10 11 9 9 7 6 5 5 4 4 4 5 6 6 7 7 7 7 8 7 8 10 11 12 12 9 10 11 8
11 10 10 10 10 9 8 4 5 5 4 4 4 5 6 6 6 7 8 8 8 8 7 9 11 13 13 11 11 11 12 11
11 11 11 10 9 8 5 4 4 4 4 4 5 5 6 7 8 8 9 9 7 7 8 10 12 14 12 12 13 12 13 12
11 10 10 9 8 6 5 3 4 3 3 4 5 7 7 8 9 9 9 9 8 9 10 12 13 13 11 12 15 11 14 12
10 10 9 8 8 5 3 2 3 3 4 5 6 8 8 8 9 10 10 9 9 10 11 12 12 12 11 14 17 13 14 11
10 10 9 9 6 4 3 2 3 3 4 5 7 7 8 8 9 10 10 10 10 11 11 11 12 11 9 16 16 15 13 12
11 10 11 8 5 5 4 2 3 4 5 7 7 7 8 9 9 10 10 11 11 11 11 12 12 9 18 22 19 14 13 12
12 11 9 8 7 6 2 4 4 5 6 6 7 7 8 9 9 9 10 12 12 12 12 12 12 12 21 24 23 12 12 12
11 8 8 8 7 5 5 5 5 5 6 6 6 7 8 9 9 10 11 11 12 12 12 13 12 11 22 24 25 14 12 12
Wind_Direction
154 151 143 135 131 125 121 111 110 109 108 111 111 106 83 46 34 43 39 48 42 22 12 4 358 360 2 358 352 348 344 344
139 137 131 124 120 122 122 120 119 123 131 127 124 103 84 66 66 63 64 49 36 18 4 4 5 10 1 357 350 345 347 351
138 136 132 124 121 116 109 104 99 89 106 96 100 114 81 75 69 59 47 41 27 16 11 11 16 0 357 354 353 345 340 348
142 137 128 122 117 110 102 94 87 82 94 108 109 119 119 93 66 48 36 28 21 16 20 16 10 358 348 352 353 344 330 326
137 137 129 118 103 102 98 89 82 72 80 84 72 57 62 50 39 14 7 24 14 13 18 6 0 347 349 350 341 333 323 323
137 134 122 113 113 98 90 85 73 62 66 73 72 71 72 67 39 4 10 12 9 8 7 354 354 346 348 343 336 335 325 328
127 119 117 111 109 101 97 86 84 72 70 66 66 68 56 39 23 6 4 354 356 8 349 345 348 347 343 336 334 331 328 326
131 129 123 119 114 109 101 102 89 81 70 61 58 55 43 28 8 3 354 352 351 360 339 340 348 347 339 335 333 332 330 322
134 128 129 129 119 106 107 100 95 80 71 58 50 34 24 12 5 352 346 338 337 339 333 337 344 344 340 338 333 333 326 320
132 132 129 120 117 109 106 99 88 75 70 70 45 22 10 1 352 336 336 336 333 333 332 338 342 345 343 340 338 333 328 322
144 137 118 111 103 107 99 86 71 73 70 52 40 8 2 355 346 349 339 338 334 333 336 339 343 345 342 340 340 326 331 324
133 118 113 115 117 111 88 87 99 72 57 45 21 12 7 2 353 345 341 334 342 341 340 341 345 343 338 335 341 328 333 324
134 135 132 122 120 104 87 93 91 60 47 34 17 16 8 3 353 348 345 344 353 355 345 344 343 338 334 332 330 332 332 326
138 135 134 128 125 102 88 107 85 64 55 30 21 15 13 2 360 2 1 359 3 356 352 348 341 339 334 336 332 321 330 323
144 142 136 128 111 104 98 127 103 73 52 29 22 19 13 7 8 9 8 2 4 1 353 347 344 340 339 336 333 333 331 329
150 144 134 123 138 116 182 133 80 60 53 32 28 20 14 11 9 8 5 1 1 355 354 352 348 343 347 332 334 338 337 331
156 147 142 152 146 181 154 106 95 75 51 41 27 15 11 11 10 7 6 5 4 360 357 352 347 348 342 336 346 337 335 338
162 162 154 154 164 170 155 128 99 71 56 40 22 16 20 18 14 12 11 10 5 3 358 351 349 350 343 343 348 339 334 340
165 144 149 150 169 139 122 122 97 75 57 35 26 27 27 20 17 17 14 5 5 1 357 355 351 359 348 350 348 342 335 341